Greenville, MS

2:04 PM CDT on March 26, 2017 (GMT -0500)
Mid Delta Regional

Weather History for KGLH - March, 2014

Change the Weather History Date:

Sunday, March 23, 2014

  Actual Average Record
Temperature  
Mean Temperature 49 °F 57 °F  
Max Temperature 56 °F 67 °F 87 °F (1929)
Min Temperature 41 °F 46 °F 30 °F (1943)
Degree Days  
Heating Degree Days 16 9  
Month to date heating degree days 354 270  
Since 1 July heating degree days 2961 2579  
Cooling Degree Days 0 1  
Month to date cooling degree days 0 9  
Year to date cooling degree days 0 14  
Moisture  
Dew Point 40 °F    
Average Humidity 69    
Maximum Humidity 93    
Minimum Humidity 44    
Precipitation  
Precipitation 0.46 in 0.16 in 2.13 in (2013)
Month to date precipitation 1.96 3.11  
Year to date precipitation 6.26 13.10  
Sea Level Pressure  
Sea Level Pressure 30.20 in    
Wind  
Wind Speed 16 mph (NNE)    
Max Wind Speed 24 mph    
Max Gust Speed 32 mph    
Visibility 7 miles    
Events Rain , Thunderstorm    
T = Trace of Precipitation, MM = Missing Value Source: NWS Daily Summary

Daily Weather History Graph

Daily Weather History Graph

Search for Another Location

Airport or City:

Trip Planner

Search our weather history database for the weather conditions in past years. The results will help you decide how hot, cold, wet, or windy it might be!

Date:

Astronomy

Mar. 23, 2014 Rise Set
Actual Time 7:03 AM CDT 7:17 PM CDT
Civil Twilight 6:38 AM CDT 7:42 PM CDT
Nautical Twilight 6:09 AM CDT 8:11 PM CDT
Astronomical Twilight 5:40 AM CDT 8:41 PM CDT
Moon 1:21 AM CDT (3/23) 11:59 AM CDT (3/23)
Length of Visible Light 13h 03m
Length of Day
12h 14m
Waning Gibbous, 54% of the Moon is Illuminated
Mar 23
Waning Gibbous
Mar 23
Last Quarter
Mar 30
New
Apr 7
First Quarter
Apr 15
Full

Hourly Weather History & Observations

Time (CDT) Temp. Windchill Dew Point Humidity Pressure Visibility Wind Dir Wind Speed Gust Speed Precip Events Conditions
12:19 AM 55.4 °F - 42.8 °F 63% 30.04 in 10.0 mi NNE 12.7 mph - 0.00 in Rain , Thunderstorm Light Rain
12:53 AM 53.1 °F - 45.0 °F 74% 30.08 in 10.0 mi NNE 12.7 mph - 0.05 in   Overcast
1:20 AM 51.8 °F - 44.6 °F 76% 30.06 in 5.0 mi NNE 13.8 mph - 0.03 in Rain , Thunderstorm Light Rain
1:53 AM 51.1 °F - 45.0 °F 80% 30.09 in 9.0 mi North 15.0 mph - 0.06 in Rain , Thunderstorm Light Rain
2:01 AM 50.0 °F - 46.4 °F 87% 30.08 in 7.0 mi North 19.6 mph 24.2 mph 0.00 in Rain Light Rain
2:20 AM 50.0 °F - 44.6 °F 82% 30.07 in 4.0 mi North 16.1 mph 24.2 mph 0.03 in Rain , Thunderstorm Rain
2:53 AM 48.0 °F - 45.0 °F 89% 30.09 in 2.5 mi North - - 0.11 in Rain , Thunderstorm Rain
3:19 AM 48.2 °F - 44.6 °F 87% 30.10 in 3.0 mi NNE 20.7 mph 26.5 mph 0.18 in Rain Light Rain
3:25 AM 48.2 °F - 44.6 °F 87% 30.10 in 5.0 mi NNE 20.7 mph 29.9 mph 0.18 in Rain Light Rain
3:37 AM 48.2 °F - 44.6 °F 87% 30.10 in 7.0 mi NNE 16.1 mph 27.6 mph 0.18 in Rain Light Rain
3:53 AM 48.0 °F - 44.1 °F 86% 30.12 in 6.0 mi NNE 19.6 mph - 0.19 in Rain Light Rain
4:40 AM 46.4 °F 40.4 °F 42.8 °F 87% 30.12 in 3.0 mi NNE 13.8 mph - 0.07 in Rain Heavy Rain
4:53 AM 46.9 °F - 44.1 °F 90% 30.14 in 4.0 mi NNE 16.1 mph - 0.09 in Rain Light Rain
5:46 AM 46.4 °F 39.0 °F 42.8 °F 87% 30.15 in 7.0 mi NNE 19.6 mph 28.8 mph 0.00 in   Overcast
5:53 AM 46.0 °F 38.5 °F 43.0 °F 89% 30.18 in 7.0 mi NNE 19.6 mph 29.9 mph 0.00 in   Overcast
6:07 AM 46.4 °F 39.5 °F 42.8 °F 87% 30.16 in 6.0 mi NNE 17.3 mph 28.8 mph N/A   Overcast
6:53 AM 45.0 °F 37.1 °F 42.1 °F 90% 30.20 in 6.0 mi NNE 19.6 mph 26.5 mph N/A   Overcast
7:53 AM 44.1 °F 35.9 °F 41.0 °F 89% 30.24 in 4.0 mi North 19.6 mph 26.5 mph 0.00 in Rain Light Rain
8:53 AM 44.1 °F 36.5 °F 39.9 °F 85% 30.28 in 4.0 mi North 17.3 mph - 0.01 in Rain Light Rain
9:53 AM 44.1 °F 36.8 °F 39.0 °F 82% 30.31 in 6.0 mi NNE 16.1 mph 24.2 mph 0.00 in   Haze
10:24 AM 46.4 °F 39.5 °F 39.2 °F 76% 30.29 in 6.0 mi NNE 17.3 mph 25.3 mph N/A   Haze
10:53 AM 48.0 °F - 39.9 °F 74% 30.31 in 6.0 mi NNE 18.4 mph 24.2 mph N/A   Haze
11:33 AM 48.2 °F - 39.2 °F 71% 30.29 in 7.0 mi NNE 18.4 mph 24.2 mph N/A   Mostly Cloudy
11:53 AM 48.9 °F - 39.9 °F 71% 30.32 in 7.0 mi North 16.1 mph - N/A   Mostly Cloudy
12:31 PM 51.8 °F - 39.2 °F 62% 30.29 in 8.0 mi NNE 20.7 mph - N/A   Scattered Clouds
12:53 PM 52.0 °F - 41.0 °F 66% 30.31 in 8.0 mi North 18.4 mph 24.2 mph N/A   Scattered Clouds
1:53 PM 55.0 °F - 39.0 °F 55% 30.28 in 9.0 mi North 17.3 mph 24.2 mph N/A   Partly Cloudy
2:53 PM 55.0 °F - 39.0 °F 55% 30.25 in 10.0 mi North 18.4 mph 24.2 mph N/A   Partly Cloudy
3:53 PM 54.0 °F - 35.1 °F 49% 30.25 in 10.0 mi North 18.4 mph 25.3 mph N/A   Clear
4:53 PM 53.1 °F - 34.0 °F 48% 30.25 in 10.0 mi North 16.1 mph - N/A   Clear
5:53 PM 52.0 °F - 30.9 °F 45% 30.27 in 10.0 mi North 11.5 mph 21.9 mph N/A   Clear
6:53 PM 50.0 °F - 32.0 °F 50% 30.27 in 10.0 mi North 12.7 mph - N/A   Clear
7:53 PM 46.9 °F - 32.0 °F 56% 30.28 in 10.0 mi North 9.2 mph - N/A   Clear
8:53 PM 46.0 °F 40.2 °F 32.0 °F 58% 30.27 in 10.0 mi NNE 12.7 mph - N/A   Clear
9:53 PM 45.0 °F 39.3 °F 32.0 °F 60% 30.29 in 10.0 mi NNE 11.5 mph - N/A   Clear
10:53 PM 44.1 °F 37.4 °F 32.0 °F 63% 30.28 in 10.0 mi NNE 13.8 mph - N/A   Clear
11:53 PM 43.0 °F 35.7 °F 32.0 °F 65% 30.27 in 10.0 mi NNE 15.0 mph - N/A   Clear